Baker, MT

8:03 AM MDT on September 28, 2016 (GMT -0600)
Baker Municipal

Weather History for KBHK - January, 2014

Change the Weather History Date:

Monday, January 6, 2014

  Actual Average Record
Temperature  
Mean Temperature -2 °F -  
Max Temperature 21 °F 38 °F 46 °F (2003)
Min Temperature -22 °F 25 °F -22 °F (2014)
Degree Days  
Heating Degree Days 68    
Moisture  
Dew Point -13 °F    
Average Humidity 66    
Maximum Humidity 77    
Minimum Humidity 53    
Precipitation  
Precipitation 0.00 in - - ()
Sea Level Pressure  
Sea Level Pressure 30.40 in    
Wind  
Wind Speed 8 mph (West)    
Max Wind Speed 17 mph    
Max Gust Speed -    
Visibility 10 miles    
Events      
Averages and records for this station are not official NWS values.
T = Trace of Precipitation, MM = Missing Value Source: NWS Daily Summary

Daily Weather History Graph

Daily Weather History Graph

Search for Another Location

Airport or City:

Trip Planner

Search our weather history database for the weather conditions in past years. The results will help you decide how hot, cold, wet, or windy it might be!

Date:

Astronomy

Jan. 06, 2014 Rise Set
Actual Time 7:39 AM MST 4:26 PM MST
Civil Twilight 7:05 AM MST 5:00 PM MST
Nautical Twilight 6:27 AM MST 5:38 PM MST
Astronomical Twilight 5:51 AM MST 6:15 PM MST
Moon 10:34 AM MST (1/6) 11:26 PM MST (1/6)
Length of Visible Light 9h 55m
Length of Day
8h 46m
Waxing Crescent, 35% of the Moon is Illuminated
Jan 6
Waxing Crescent
Jan 7
First Quarter
Jan 15
Full
Jan 23
Last Quarter
Jan 30
New

Hourly Weather History & Observations

Time (MST) Temp. Windchill Dew Point Humidity Pressure Visibility Wind Dir Wind Speed Gust Speed Precip Events Conditions
12:07 AM -18.9 °F -42.8 °F -26.0 °F 70% 30.38 in 10.0 mi West 13.8 mph - N/A   Scattered Clouds
12:51 AM -18.9 °F -41.8 °F -26.0 °F 70% 30.66 in 10.0 mi West 12.7 mph - N/A   Clear
1:51 AM -18.9 °F -39.8 °F -27.0 °F 66% 30.66 in 10.0 mi West 10.4 mph - N/A   Clear
2:51 AM -18.9 °F -41.8 °F -26.0 °F 70% 30.66 in 10.0 mi West 12.7 mph - N/A   Clear
3:51 AM -20.9 °F -36.4 °F -27.9 °F 70% 30.66 in 10.0 mi NW 5.8 mph - N/A   Clear
4:51 AM -20.9 °F -41.0 °F -27.0 °F 73% 30.65 in 10.0 mi WNW 9.2 mph - N/A   Clear
5:51 AM -20.9 °F -34.3 °F -26.0 °F 77% 30.64 in 10.0 mi West 4.6 mph - N/A   Clear
6:51 AM -20.9 °F - -27.0 °F 73% 30.61 in 10.0 mi Calm Calm - N/A   Clear
7:51 AM -22.0 °F - -29.0 °F 70% 30.61 in 10.0 mi Calm Calm - N/A   Clear
8:51 AM -17.0 °F - -24.0 °F 70% 30.59 in 10.0 mi Calm Calm - N/A   Clear
9:51 AM -11.0 °F - -20.0 °F 64% 30.56 in 10.0 mi Calm Calm - N/A   Mostly Cloudy
10:51 AM -9.0 °F -23.8 °F -18.9 °F 62% 30.52 in 10.0 mi West 6.9 mph - N/A   Clear
11:51 AM -6.0 °F -16.9 °F -16.1 °F 62% 30.46 in 10.0 mi WNW 4.6 mph - N/A   Clear
12:51 PM -2.9 °F -13.3 °F -15.0 °F 56% 30.40 in 10.0 mi West 4.6 mph - N/A   Scattered Clouds
1:51 PM -0.0 °F -15.3 °F -13.0 °F 54% 30.36 in 10.0 mi WSW 9.2 mph - N/A   Overcast
2:51 PM 3.0 °F -4.4 °F -9.0 °F 57% 30.35 in 10.0 mi SW 3.5 mph - N/A   Overcast
3:51 PM 6.1 °F -2.8 °F -8.0 °F 53% 30.30 in 10.0 mi SW 4.6 mph - N/A   Overcast
4:51 PM 8.1 °F -0.5 °F -4.0 °F 58% 30.24 in 10.0 mi SSW 4.6 mph - N/A   Overcast
5:51 PM 10.0 °F - -0.9 °F 61% 30.21 in 10.0 mi Calm Calm - N/A   Overcast
6:51 PM 9.0 °F -2.2 °F 1.0 °F 70% 30.18 in 10.0 mi SE 6.9 mph - N/A   Overcast
7:51 PM 9.0 °F -2.2 °F 1.9 °F 73% 30.16 in 10.0 mi SE 6.9 mph - N/A   Mostly Cloudy
8:51 PM 12.0 °F - 5.0 °F 73% 30.09 in 10.0 mi Calm Calm - N/A   Overcast
9:51 PM 14.0 °F - 6.1 °F 71% 30.05 in 10.0 mi Calm Calm - N/A   Overcast
10:51 PM 17.1 °F 8.7 °F 9.0 °F 71% 30.02 in 10.0 mi West 5.8 mph - N/A   Overcast
11:51 PM 21.0 °F 6.6 °F 12.0 °F 68% 29.99 in 10.0 mi West 17.3 mph - N/A   Overcast